User: anonymous   Login
Location: South Tamworth Observatory
(43.8246°N, 71.3026°W)
Time: 09:25:02
(UTC-05:00)
Language:

Cosmos 2208 Rocket - Orbit

View from above orbital plane
View from above orbital plane
View from above satellite
View from above satellite

Ground track
Ground track

The orbit data is extracted from the following two-line orbital elements,

1 22081U 92053B   14353.90998759  .00000342  00000-0  13315-3 0  7548
2 22081 074.0460 300.4120 0035037 134.0166 226.3883 14.33156688168434
Epoch (UTC): 19 December 2014 21:50:22
Eccentricity: 0.0035037
inclination: 74.0460°
perigee height: 756 km
apogee height: 806 km
right ascension of ascending node: 300.4120°
argument of perigee: 134.0166°
revolutions per day: 14.33156688
mean anomaly at epoch: 226.3883°
orbit number at epoch: 16843

The dashed part of the orbit path shows where the satellite is in the earth's shadow,  

DLR